Year,Month,Day,Hour,Minute,Value (Times are PST for temperature in C)
2007,07,13,00,00,18.70
2007,07,13,00,01,18.70
2007,07,13,00,02,18.70
2007,07,13,00,03,18.70
2007,07,13,00,04,18.70
2007,07,13,00,05,18.60
2007,07,13,00,06,18.60
2007,07,13,00,07,18.60
2007,07,13,00,08,18.60
2007,07,13,00,09,18.60
2007,07,13,00,10,18.60
2007,07,13,00,11,18.60
2007,07,13,00,12,18.60
2007,07,13,00,13,18.60
2007,07,13,00,14,18.60
2007,07,13,00,15,18.60
2007,07,13,00,16,18.50
2007,07,13,00,17,18.50
2007,07,13,00,18,18.50
2007,07,13,00,19,18.50
2007,07,13,00,20,18.40
2007,07,13,00,21,18.50
2007,07,13,00,22,18.50
2007,07,13,00,23,18.50
2007,07,13,00,24,18.40
2007,07,13,00,25,18.50
2007,07,13,00,26,18.50
2007,07,13,00,27,18.50
2007,07,13,00,28,18.50
2007,07,13,00,29,18.60
2007,07,13,00,30,18.60
2007,07,13,00,31,18.60
2007,07,13,00,32,18.70
2007,07,13,00,33,18.70
2007,07,13,00,34,18.70
2007,07,13,00,35,18.80
2007,07,13,00,36,18.80
2007,07,13,00,37,18.80
2007,07,13,00,38,18.90
2007,07,13,00,39,18.80
2007,07,13,00,40,18.90
2007,07,13,00,41,18.90
2007,07,13,00,42,19.00
2007,07,13,00,43,19.00
2007,07,13,00,44,19.10
2007,07,13,00,45,19.10
2007,07,13,00,46,19.10
2007,07,13,00,47,19.10
2007,07,13,00,48,19.10
2007,07,13,00,49,19.10
2007,07,13,00,50,19.10
2007,07,13,00,51,19.10
2007,07,13,00,52,19.10
2007,07,13,00,53,19.10
2007,07,13,00,54,19.10
2007,07,13,00,55,19.10
2007,07,13,00,56,19.10
2007,07,13,00,57,19.10
2007,07,13,00,58,19.10
2007,07,13,00,59,19.10
2007,07,13,01,00,19.10
2007,07,13,01,01,19.10
2007,07,13,01,02,19.10
2007,07,13,01,03,19.00
2007,07,13,01,04,19.00
2007,07,13,01,05,19.00
2007,07,13,01,06,19.00
2007,07,13,01,07,19.00
2007,07,13,01,08,18.90
2007,07,13,01,09,18.90
2007,07,13,01,10,18.90
2007,07,13,01,11,18.90
2007,07,13,01,12,18.90
2007,07,13,01,13,18.90
2007,07,13,01,14,18.90
2007,07,13,01,15,18.90
2007,07,13,01,16,18.90
2007,07,13,01,17,18.90
2007,07,13,01,18,18.90
2007,07,13,01,19,18.90
2007,07,13,01,20,18.90
2007,07,13,01,21,18.80
2007,07,13,01,22,18.80
2007,07,13,01,23,18.80
2007,07,13,01,24,18.80
2007,07,13,01,25,18.80
2007,07,13,01,26,18.80
2007,07,13,01,27,18.80
2007,07,13,01,28,18.70
2007,07,13,01,29,18.70
2007,07,13,01,30,18.70
2007,07,13,01,31,18.70
2007,07,13,01,32,18.60
2007,07,13,01,33,18.60
2007,07,13,01,34,18.50
2007,07,13,01,35,18.50
2007,07,13,01,36,18.40
2007,07,13,01,37,18.40
2007,07,13,01,38,18.30
2007,07,13,01,39,18.30
2007,07,13,01,40,18.30
2007,07,13,01,41,18.30
2007,07,13,01,42,18.20
2007,07,13,01,43,18.20
2007,07,13,01,44,18.20
2007,07,13,01,45,18.20
2007,07,13,01,46,18.20
2007,07,13,01,47,18.10
2007,07,13,01,48,18.10
2007,07,13,01,49,18.10
2007,07,13,01,50,18.00
2007,07,13,01,51,18.00
2007,07,13,01,52,17.90
2007,07,13,01,53,17.90
2007,07,13,01,54,17.90
2007,07,13,01,55,17.80
2007,07,13,01,56,17.80
2007,07,13,01,57,17.80
2007,07,13,01,58,17.80
2007,07,13,01,59,17.80
2007,07,13,02,00,17.70
2007,07,13,02,01,17.70
2007,07,13,02,02,17.70
2007,07,13,02,03,17.70
2007,07,13,02,04,17.70
2007,07,13,02,05,17.70
2007,07,13,02,06,17.70
2007,07,13,02,07,17.70
2007,07,13,02,08,17.70
2007,07,13,02,09,17.70
2007,07,13,02,10,17.70
2007,07,13,02,11,17.70
2007,07,13,02,12,17.70
2007,07,13,02,13,17.70
2007,07,13,02,14,17.70
2007,07,13,02,15,17.60
2007,07,13,02,16,17.60
2007,07,13,02,17,17.60
2007,07,13,02,18,17.60
2007,07,13,02,19,17.60
2007,07,13,02,20,17.60
2007,07,13,02,21,17.60
2007,07,13,02,22,17.70
2007,07,13,02,23,17.70
2007,07,13,02,24,17.70
2007,07,13,02,25,17.60
2007,07,13,02,26,17.60
2007,07,13,02,27,17.60
2007,07,13,02,28,17.60
2007,07,13,02,29,17.60
2007,07,13,02,30,17.50
2007,07,13,02,31,17.50
2007,07,13,02,32,17.40
2007,07,13,02,33,17.40
2007,07,13,02,34,17.40
2007,07,13,02,35,17.40
2007,07,13,02,36,17.30
2007,07,13,02,37,17.30
2007,07,13,02,38,17.30
2007,07,13,02,39,17.30
2007,07,13,02,40,17.30
2007,07,13,02,41,17.30
2007,07,13,02,42,17.30
2007,07,13,02,43,17.20
2007,07,13,02,44,17.20
2007,07,13,02,45,17.20
2007,07,13,02,46,17.20
2007,07,13,02,47,17.20
2007,07,13,02,48,17.10
2007,07,13,02,49,17.10
2007,07,13,02,50,17.10
2007,07,13,02,51,17.10
2007,07,13,02,52,17.00
2007,07,13,02,53,17.00
2007,07,13,02,54,16.90
2007,07,13,02,55,16.90
2007,07,13,02,56,16.90
2007,07,13,02,57,16.90
2007,07,13,02,58,16.80
2007,07,13,02,59,16.80
2007,07,13,03,00,16.80
2007,07,13,03,01,16.80
2007,07,13,03,02,16.70
2007,07,13,03,03,16.70
2007,07,13,03,04,16.70
2007,07,13,03,05,16.70
2007,07,13,03,06,16.70
2007,07,13,03,07,16.70
2007,07,13,03,08,16.60
2007,07,13,03,09,16.60
2007,07,13,03,10,16.60
2007,07,13,03,11,16.60
2007,07,13,03,12,16.60
2007,07,13,03,13,16.60
2007,07,13,03,14,16.60
2007,07,13,03,15,16.60
2007,07,13,03,16,16.50
2007,07,13,03,17,16.50
2007,07,13,03,18,16.50
2007,07,13,03,19,16.50
2007,07,13,03,20,16.40
2007,07,13,03,21,16.40
2007,07,13,03,22,16.40
2007,07,13,03,23,16.40
2007,07,13,03,24,16.40
2007,07,13,03,25,16.40
2007,07,13,03,26,16.40
2007,07,13,03,27,16.30
2007,07,13,03,28,16.30
2007,07,13,03,29,16.30
2007,07,13,03,30,16.30
2007,07,13,03,31,16.30
2007,07,13,03,32,16.30
2007,07,13,03,33,16.20
2007,07,13,03,34,16.20
2007,07,13,03,35,16.20
2007,07,13,03,36,16.20
2007,07,13,03,37,16.10
2007,07,13,03,38,16.10
2007,07,13,03,39,16.10
2007,07,13,03,40,16.10
2007,07,13,03,41,16.10
2007,07,13,03,42,16.10
2007,07,13,03,43,16.00
2007,07,13,03,44,16.00
2007,07,13,03,45,16.00
2007,07,13,03,46,16.00
2007,07,13,03,47,16.00
2007,07,13,03,48,16.00
2007,07,13,03,49,16.00
2007,07,13,03,50,16.00
2007,07,13,03,51,15.90
2007,07,13,03,52,15.90
2007,07,13,03,53,15.90
2007,07,13,03,54,15.90
2007,07,13,03,55,15.90
2007,07,13,03,56,15.90
2007,07,13,03,57,15.90
2007,07,13,03,58,15.90
2007,07,13,03,59,15.90
2007,07,13,04,00,16.00
2007,07,13,04,01,16.00
2007,07,13,04,02,16.00
2007,07,13,04,03,16.00
2007,07,13,04,04,16.10
2007,07,13,04,05,16.10
2007,07,13,04,06,16.10
2007,07,13,04,07,16.10
2007,07,13,04,08,16.10
2007,07,13,04,09,16.10
2007,07,13,04,10,16.10
2007,07,13,04,11,16.10
2007,07,13,04,12,16.10
2007,07,13,04,13,16.10
2007,07,13,04,14,16.10
2007,07,13,04,15,16.20
2007,07,13,04,16,16.20
2007,07,13,04,17,16.20
2007,07,13,04,18,16.20
2007,07,13,04,19,16.20
2007,07,13,04,20,16.20
2007,07,13,04,21,16.30
2007,07,13,04,22,16.30
2007,07,13,04,23,16.30
2007,07,13,04,24,16.40
2007,07,13,04,25,16.40
2007,07,13,04,26,16.40
2007,07,13,04,27,16.40
2007,07,13,04,28,16.40
2007,07,13,04,29,16.40
2007,07,13,04,30,16.50
2007,07,13,04,31,16.50
2007,07,13,04,32,16.50
2007,07,13,04,33,16.50
2007,07,13,04,34,16.60
2007,07,13,04,35,16.60
2007,07,13,04,36,16.60
2007,07,13,04,37,16.60
2007,07,13,04,38,16.60
2007,07,13,04,39,16.60
2007,07,13,04,40,16.70
2007,07,13,04,41,16.70
2007,07,13,04,42,16.70
2007,07,13,04,43,16.80
2007,07,13,04,44,16.80
2007,07,13,04,45,16.80
2007,07,13,04,46,16.80
2007,07,13,04,47,16.80
2007,07,13,04,48,16.80
2007,07,13,04,49,16.80
2007,07,13,04,50,16.80
2007,07,13,04,51,16.80
2007,07,13,04,52,16.80
2007,07,13,04,53,16.70
2007,07,13,04,54,16.70
2007,07,13,04,55,16.70
2007,07,13,04,56,16.70
2007,07,13,04,57,16.60
2007,07,13,04,58,16.60
2007,07,13,04,59,16.60
2007,07,13,05,00,16.60
2007,07,13,05,01,16.60
2007,07,13,05,02,16.60
2007,07,13,05,03,16.60
2007,07,13,05,04,16.60
2007,07,13,05,05,16.60
2007,07,13,05,06,16.50
2007,07,13,05,07,16.50
2007,07,13,05,08,16.50
2007,07,13,05,09,16.40
2007,07,13,05,10,16.40
2007,07,13,05,11,16.40
2007,07,13,05,12,16.40
2007,07,13,05,13,16.40
2007,07,13,05,14,16.30
2007,07,13,05,15,16.30
2007,07,13,05,16,16.30
2007,07,13,05,17,16.30
2007,07,13,05,18,16.20
2007,07,13,05,19,16.20
2007,07,13,05,20,16.20
2007,07,13,05,21,16.20
2007,07,13,05,22,16.10
2007,07,13,05,23,16.10
2007,07,13,05,24,16.10
2007,07,13,05,25,16.10
2007,07,13,05,26,16.10
2007,07,13,05,27,16.10
2007,07,13,05,28,16.00
2007,07,13,05,29,16.00
2007,07,13,05,30,16.00
2007,07,13,05,31,16.00
2007,07,13,05,32,15.90
2007,07,13,05,33,15.90
2007,07,13,05,34,15.90
2007,07,13,05,35,15.90
2007,07,13,05,36,15.90
2007,07,13,05,37,15.90
2007,07,13,05,38,15.80
2007,07,13,05,39,15.80
2007,07,13,05,40,15.80
2007,07,13,05,41,15.80
2007,07,13,05,42,15.80
2007,07,13,05,43,15.80
2007,07,13,05,44,15.80
2007,07,13,05,45,15.80
2007,07,13,05,46,15.80
2007,07,13,05,47,15.80
2007,07,13,05,48,15.80
2007,07,13,05,49,15.80
2007,07,13,05,50,15.80
2007,07,13,05,51,15.80
2007,07,13,05,52,15.80
2007,07,13,05,53,15.80
2007,07,13,05,54,15.80
2007,07,13,05,55,15.80
2007,07,13,05,56,15.80
2007,07,13,05,57,15.70
2007,07,13,05,58,15.70
2007,07,13,05,59,15.70
2007,07,13,06,00,15.70
2007,07,13,06,01,15.70
2007,07,13,06,02,15.70
2007,07,13,06,03,15.70
2007,07,13,06,04,15.60
2007,07,13,06,05,15.60
2007,07,13,06,06,15.60
2007,07,13,06,07,15.60
2007,07,13,06,08,15.60
2007,07,13,06,09,15.60
2007,07,13,06,10,15.60
2007,07,13,06,11,15.60
2007,07,13,06,12,15.60
2007,07,13,06,13,15.60
2007,07,13,06,14,15.60
2007,07,13,06,15,15.60
2007,07,13,06,16,15.60
2007,07,13,06,17,15.60
2007,07,13,06,18,15.50
2007,07,13,06,19,15.50
2007,07,13,06,20,15.50
2007,07,13,06,21,15.50
2007,07,13,06,22,15.40
2007,07,13,06,23,15.40
2007,07,13,06,24,15.40
2007,07,13,06,25,15.40
2007,07,13,06,26,15.40
2007,07,13,06,27,15.40
2007,07,13,06,28,15.40
2007,07,13,06,29,15.40
2007,07,13,06,30,15.40
2007,07,13,06,31,15.40
2007,07,13,06,32,15.40
2007,07,13,06,33,15.40
2007,07,13,06,34,15.40
2007,07,13,06,35,15.40
2007,07,13,06,36,15.40
2007,07,13,06,37,15.40
2007,07,13,06,38,15.40
2007,07,13,06,39,15.40
2007,07,13,06,40,15.40
2007,07,13,06,41,15.40
2007,07,13,06,42,15.40
2007,07,13,06,43,15.40
2007,07,13,06,44,15.40
2007,07,13,06,45,15.40
2007,07,13,06,46,15.50
2007,07,13,06,47,15.50
2007,07,13,06,48,15.50
2007,07,13,06,49,15.50
2007,07,13,06,50,15.60
2007,07,13,06,51,15.60
2007,07,13,06,52,15.60
2007,07,13,06,53,15.70
2007,07,13,06,54,15.70
2007,07,13,06,55,15.70
2007,07,13,06,56,15.70
2007,07,13,06,57,15.80
2007,07,13,06,58,15.80
2007,07,13,06,59,15.80
2007,07,13,07,00,15.90
2007,07,13,07,01,15.90
2007,07,13,07,02,16.00
2007,07,13,07,03,16.00
2007,07,13,07,04,16.00
2007,07,13,07,05,16.10
2007,07,13,07,06,16.10
2007,07,13,07,07,16.10
2007,07,13,07,08,16.10
2007,07,13,07,09,16.20
2007,07,13,07,10,16.20
2007,07,13,07,11,16.20
2007,07,13,07,12,16.30
2007,07,13,07,13,16.30
2007,07,13,07,14,16.30
2007,07,13,07,15,16.40
2007,07,13,07,16,16.50
2007,07,13,07,17,16.50
2007,07,13,07,18,16.60
2007,07,13,07,19,16.60
2007,07,13,07,20,16.70
2007,07,13,07,21,16.80
2007,07,13,07,22,16.80
2007,07,13,07,23,16.80
2007,07,13,07,24,16.90
2007,07,13,07,25,16.90
2007,07,13,07,26,16.90
2007,07,13,07,27,17.00
2007,07,13,07,28,17.00
2007,07,13,07,29,17.10
2007,07,13,07,30,17.10
2007,07,13,07,31,17.10
2007,07,13,07,32,17.10
2007,07,13,07,33,17.10
2007,07,13,07,34,17.20
2007,07,13,07,35,17.20
2007,07,13,07,36,17.20
2007,07,13,07,37,17.20
2007,07,13,07,38,17.20
2007,07,13,07,39,17.30
2007,07,13,07,40,17.30
2007,07,13,07,41,17.30
2007,07,13,07,42,17.30
2007,07,13,07,43,17.30
2007,07,13,07,44,17.30
2007,07,13,07,45,17.30
2007,07,13,07,46,17.30
2007,07,13,07,47,17.40
2007,07,13,07,48,17.40
2007,07,13,07,49,17.40
2007,07,13,07,50,17.40
2007,07,13,07,51,17.40
2007,07,13,07,52,17.50
2007,07,13,07,53,17.50
2007,07,13,07,54,17.50
2007,07,13,07,55,17.60
2007,07,13,07,56,17.60
2007,07,13,07,57,17.60
2007,07,13,07,58,17.60
2007,07,13,07,59,17.70
2007,07,13,08,00,17.70
2007,07,13,08,01,17.70
2007,07,13,08,02,17.70
2007,07,13,08,03,17.70
2007,07,13,08,04,17.70
2007,07,13,08,05,17.70
2007,07,13,08,06,17.70
2007,07,13,08,07,17.80
2007,07,13,08,08,17.80
2007,07,13,08,09,17.80
2007,07,13,08,10,17.90
2007,07,13,08,11,17.90
2007,07,13,08,12,17.90
2007,07,13,08,13,17.90
2007,07,13,08,14,18.00
2007,07,13,08,15,18.00
2007,07,13,08,16,18.00
2007,07,13,08,17,18.00
2007,07,13,08,18,18.00
2007,07,13,08,19,18.00
2007,07,13,08,20,18.00
2007,07,13,08,21,18.00
2007,07,13,08,22,18.10
2007,07,13,08,23,18.10
2007,07,13,08,24,18.20
2007,07,13,08,25,18.20
2007,07,13,08,26,18.30
2007,07,13,08,27,18.40
2007,07,13,08,28,18.50
2007,07,13,08,29,18.50
2007,07,13,08,30,18.60
2007,07,13,08,31,18.70
2007,07,13,08,32,18.80
2007,07,13,08,33,18.80
2007,07,13,08,34,19.00
2007,07,13,08,35,19.00
2007,07,13,08,36,19.10
2007,07,13,08,37,19.20
2007,07,13,08,38,19.20
2007,07,13,08,39,19.30
2007,07,13,08,40,19.30
2007,07,13,08,41,19.40
2007,07,13,08,42,19.40
2007,07,13,08,43,19.40
2007,07,13,08,44,19.50
2007,07,13,08,45,19.50
2007,07,13,08,46,19.50
2007,07,13,08,47,19.50
2007,07,13,08,48,19.50
2007,07,13,08,49,19.50
2007,07,13,08,50,19.50
2007,07,13,08,51,19.40
2007,07,13,08,52,19.40
2007,07,13,08,53,19.40
2007,07,13,08,54,19.40
2007,07,13,08,55,19.30
2007,07,13,08,56,19.40
2007,07,13,08,57,19.40
2007,07,13,08,58,19.40
2007,07,13,08,59,19.40
2007,07,13,09,00,19.40
2007,07,13,09,01,19.40
2007,07,13,09,02,19.50
2007,07,13,09,03,19.60
2007,07,13,09,04,19.60
2007,07,13,09,05,19.70
2007,07,13,09,06,19.80
2007,07,13,09,07,19.80
2007,07,13,09,08,19.80
2007,07,13,09,09,19.90
2007,07,13,09,10,19.90
2007,07,13,09,11,20.00
2007,07,13,09,12,20.10
2007,07,13,09,13,20.10
2007,07,13,09,14,20.10
2007,07,13,09,15,20.10
2007,07,13,09,16,20.20
2007,07,13,09,17,20.20
2007,07,13,09,18,20.20
2007,07,13,09,19,20.30
2007,07,13,09,20,20.30
2007,07,13,09,21,20.40
2007,07,13,09,22,20.40
2007,07,13,09,23,20.40
2007,07,13,09,24,20.40
2007,07,13,09,25,20.40
2007,07,13,09,26,20.30
2007,07,13,09,27,20.30
2007,07,13,09,28,20.30
2007,07,13,09,29,20.30
2007,07,13,09,30,20.40
2007,07,13,09,31,20.40
2007,07,13,09,32,20.50
2007,07,13,09,33,20.50
2007,07,13,09,34,20.60
2007,07,13,09,35,20.70
2007,07,13,09,36,20.70
2007,07,13,09,37,20.80
2007,07,13,09,38,20.90
2007,07,13,09,39,20.90
2007,07,13,09,40,21.00
2007,07,13,09,41,21.00
2007,07,13,09,42,21.10
2007,07,13,09,43,21.20
2007,07,13,09,44,21.20
2007,07,13,09,45,21.30
2007,07,13,09,46,21.30
2007,07,13,09,47,21.20
2007,07,13,09,48,21.20
2007,07,13,09,49,21.20
2007,07,13,09,50,21.20
2007,07,13,09,51,21.20
2007,07,13,09,52,21.30
2007,07,13,09,53,21.30
2007,07,13,09,54,21.40
2007,07,13,09,55,21.40
2007,07,13,09,56,21.50
2007,07,13,09,57,21.60
2007,07,13,09,58,21.60
2007,07,13,09,59,21.70
2007,07,13,10,00,21.70
2007,07,13,10,01,21.70
2007,07,13,10,02,21.70
2007,07,13,10,03,21.70
2007,07,13,10,04,21.80
2007,07,13,10,05,21.80
2007,07,13,10,06,21.80
2007,07,13,10,07,21.80
2007,07,13,10,08,21.90
2007,07,13,10,09,22.00
2007,07,13,10,10,22.00
2007,07,13,10,11,22.10
2007,07,13,10,12,22.10
2007,07,13,10,13,22.10
2007,07,13,10,14,22.20
2007,07,13,10,15,22.20
2007,07,13,10,16,22.20
2007,07,13,10,17,22.20
2007,07,13,10,18,22.20
2007,07,13,10,19,22.20
2007,07,13,10,20,22.20
2007,07,13,10,21,22.20
2007,07,13,10,22,22.20
2007,07,13,10,23,22.30
2007,07,13,10,24,22.30
2007,07,13,10,25,22.40
2007,07,13,10,26,22.40
2007,07,13,10,27,22.50
2007,07,13,10,28,22.50
2007,07,13,10,29,22.60
2007,07,13,10,30,22.70
2007,07,13,10,31,22.70
2007,07,13,10,32,22.70
2007,07,13,10,33,22.70
2007,07,13,10,34,22.80
2007,07,13,10,35,22.80
2007,07,13,10,36,22.80
2007,07,13,10,37,22.80
2007,07,13,10,38,22.70
2007,07,13,10,39,22.70
2007,07,13,10,40,22.60
2007,07,13,10,41,22.60
2007,07,13,10,42,22.60
2007,07,13,10,43,22.50
2007,07,13,10,44,22.50
2007,07,13,10,45,22.50
2007,07,13,10,46,22.50
2007,07,13,10,47,22.50
2007,07,13,10,48,22.60
2007,07,13,10,49,22.60
2007,07,13,10,50,22.60
2007,07,13,10,51,22.60
2007,07,13,10,52,22.70
2007,07,13,10,53,22.70
2007,07,13,10,54,22.80
2007,07,13,10,55,22.80
2007,07,13,10,56,22.90
2007,07,13,10,57,22.90
2007,07,13,10,58,23.00
2007,07,13,10,59,23.00
2007,07,13,11,00,23.00
2007,07,13,11,01,23.10
2007,07,13,11,02,23.10
2007,07,13,11,03,23.00
2007,07,13,11,04,23.00
2007,07,13,11,05,23.00
2007,07,13,11,06,23.10
2007,07,13,11,07,23.10
2007,07,13,11,08,23.10
2007,07,13,11,09,23.10
2007,07,13,11,10,23.10
2007,07,13,11,11,23.00
2007,07,13,11,12,23.00
2007,07,13,11,13,22.90
2007,07,13,11,14,22.70
2007,07,13,11,15,22.60
2007,07,13,11,16,22.60
2007,07,13,11,17,22.50
2007,07,13,11,18,22.40
2007,07,13,11,19,22.40
2007,07,13,11,20,22.30
2007,07,13,11,21,22.10
2007,07,13,11,22,22.00
2007,07,13,11,23,21.90
2007,07,13,11,24,21.80
2007,07,13,11,25,21.80
2007,07,13,11,26,21.70
2007,07,13,11,27,21.60
2007,07,13,11,28,21.50
2007,07,13,11,29,21.30
2007,07,13,11,30,21.20
2007,07,13,11,31,21.10
2007,07,13,11,32,21.00
2007,07,13,11,33,20.80
2007,07,13,11,34,20.70
2007,07,13,11,35,20.60
2007,07,13,11,36,20.50
2007,07,13,11,37,20.50
2007,07,13,11,38,20.50
2007,07,13,11,39,20.60
2007,07,13,11,40,20.60
2007,07,13,11,41,20.70
2007,07,13,11,42,20.80
2007,07,13,11,43,20.90
2007,07,13,11,44,21.00
2007,07,13,11,45,21.10
2007,07,13,11,46,21.30
2007,07,13,11,47,21.40
2007,07,13,11,48,21.40
2007,07,13,11,49,21.50
2007,07,13,11,50,21.60
2007,07,13,11,51,21.60
2007,07,13,11,52,21.70
2007,07,13,11,53,21.70
2007,07,13,11,54,21.70
2007,07,13,11,55,21.70
2007,07,13,11,56,21.80
2007,07,13,11,57,21.80
2007,07,13,11,58,21.80
2007,07,13,11,59,21.80
2007,07,13,12,00,21.80
2007,07,13,12,01,21.80
2007,07,13,12,02,21.70
2007,07,13,12,03,21.70
2007,07,13,12,04,21.60
2007,07,13,12,05,21.60
2007,07,13,12,06,21.70
2007,07,13,12,07,21.80
2007,07,13,12,08,21.80
2007,07,13,12,09,21.90
2007,07,13,12,10,22.00
2007,07,13,12,11,22.00
2007,07,13,12,12,22.10
2007,07,13,12,13,22.10
2007,07,13,12,14,22.10
2007,07,13,12,15,22.10
2007,07,13,12,16,22.10
2007,07,13,12,17,22.20
2007,07,13,12,18,22.20
2007,07,13,12,19,22.30
2007,07,13,12,20,22.40
2007,07,13,12,21,22.50
2007,07,13,12,22,22.60
2007,07,13,12,23,22.70
2007,07,13,12,24,22.70
2007,07,13,12,25,22.70
2007,07,13,12,26,22.70
2007,07,13,12,27,22.70
2007,07,13,12,28,22.60
2007,07,13,12,29,22.50
2007,07,13,12,30,22.50
2007,07,13,12,31,22.40
2007,07,13,12,32,22.40
2007,07,13,12,33,22.40
2007,07,13,12,34,22.40
2007,07,13,12,35,22.40
2007,07,13,12,36,22.40
2007,07,13,12,37,22.40
2007,07,13,12,38,22.40
2007,07,13,12,39,22.40
2007,07,13,12,40,22.50
2007,07,13,12,41,22.60
2007,07,13,12,42,22.70
2007,07,13,12,43,22.80
2007,07,13,12,44,22.80
2007,07,13,12,45,22.90
2007,07,13,12,46,22.90
2007,07,13,12,47,23.00
2007,07,13,12,48,23.10
2007,07,13,12,49,23.10
2007,07,13,12,50,23.20
2007,07,13,12,51,23.20
2007,07,13,12,52,23.20
2007,07,13,12,53,23.30
2007,07,13,12,54,23.30
2007,07,13,12,55,23.30
2007,07,13,12,56,23.30
2007,07,13,12,57,23.30
2007,07,13,12,58,23.40
2007,07,13,12,59,23.40
2007,07,13,13,00,23.40
2007,07,13,13,01,23.40
2007,07,13,13,02,23.50
2007,07,13,13,03,23.60
2007,07,13,13,04,23.60
2007,07,13,13,05,23.70
2007,07,13,13,06,23.70
2007,07,13,13,07,23.70
2007,07,13,13,08,23.70
2007,07,13,13,09,23.70
2007,07,13,13,10,23.70
2007,07,13,13,11,23.60
2007,07,13,13,12,23.60
2007,07,13,13,13,23.60
2007,07,13,13,14,23.60
2007,07,13,13,15,23.70
2007,07,13,13,16,23.70
2007,07,13,13,17,23.80
2007,07,13,13,18,23.80
2007,07,13,13,19,23.90
2007,07,13,13,20,24.00
2007,07,13,13,21,24.10
2007,07,13,13,22,24.10
2007,07,13,13,23,24.10
2007,07,13,13,24,24.20
2007,07,13,13,25,24.20
2007,07,13,13,26,24.20
2007,07,13,13,27,24.10
2007,07,13,13,28,24.10
2007,07,13,13,29,24.20
2007,07,13,13,30,24.30
2007,07,13,13,31,24.30
2007,07,13,13,32,24.30
2007,07,13,13,33,24.20
2007,07,13,13,34,24.20
2007,07,13,13,35,24.10
2007,07,13,13,36,24.00
2007,07,13,13,37,23.80
2007,07,13,13,38,23.70
2007,07,13,13,39,23.50
2007,07,13,13,40,23.30
2007,07,13,13,41,23.20
2007,07,13,13,42,23.10
2007,07,13,13,43,23.00
2007,07,13,13,44,22.90
2007,07,13,13,45,22.90
2007,07,13,13,46,22.90
2007,07,13,13,47,22.90
2007,07,13,13,48,23.00
2007,07,13,13,49,23.00
2007,07,13,13,50,23.10
2007,07,13,13,51,23.00
2007,07,13,13,52,23.10
2007,07,13,13,53,23.20
2007,07,13,13,54,23.30
2007,07,13,13,55,23.40
2007,07,13,13,56,23.50
2007,07,13,13,57,23.60
2007,07,13,13,58,23.70
2007,07,13,13,59,23.80
2007,07,13,14,00,23.80
2007,07,13,14,01,23.70
2007,07,13,14,02,23.60
2007,07,13,14,03,23.50
2007,07,13,14,04,23.40
2007,07,13,14,05,23.40
2007,07,13,14,06,23.30
2007,07,13,14,07,23.30
2007,07,13,14,08,23.40
2007,07,13,14,09,23.40
2007,07,13,14,10,23.50
2007,07,13,14,11,23.50
2007,07,13,14,12,23.60
2007,07,13,14,13,23.70
2007,07,13,14,14,23.70
2007,07,13,14,15,23.70
2007,07,13,14,16,23.80
2007,07,13,14,17,23.90
2007,07,13,14,18,24.00
2007,07,13,14,19,24.10
2007,07,13,14,20,24.30
2007,07,13,14,21,24.30
2007,07,13,14,22,24.30
2007,07,13,14,23,24.40
2007,07,13,14,24,24.50
2007,07,13,14,25,24.50
2007,07,13,14,26,24.60
2007,07,13,14,27,24.70
2007,07,13,14,28,24.70
2007,07,13,14,29,24.80
2007,07,13,14,30,24.80
2007,07,13,14,31,24.80
2007,07,13,14,32,24.80
2007,07,13,14,33,24.70
2007,07,13,14,34,24.70
2007,07,13,14,35,24.70
2007,07,13,14,36,24.70
2007,07,13,14,37,24.70
2007,07,13,14,38,24.70
2007,07,13,14,39,24.80
2007,07,13,14,40,24.80
2007,07,13,14,41,24.90
2007,07,13,14,42,25.00
2007,07,13,14,43,25.10
2007,07,13,14,44,25.20
2007,07,13,14,45,25.40
2007,07,13,14,46,25.50
2007,07,13,14,47,25.60
2007,07,13,14,48,25.70
2007,07,13,14,49,25.80
2007,07,13,14,50,25.90
2007,07,13,14,51,25.90
2007,07,13,14,52,25.90
2007,07,13,14,53,25.90
2007,07,13,14,54,25.90
2007,07,13,14,55,25.90
2007,07,13,14,56,25.90
2007,07,13,14,57,26.00
2007,07,13,14,58,26.10
2007,07,13,14,59,26.20
2007,07,13,15,00,26.30
2007,07,13,15,01,26.30
2007,07,13,15,02,26.30
2007,07,13,15,03,26.30
2007,07,13,15,04,26.30
2007,07,13,15,05,26.30
2007,07,13,15,06,26.20
2007,07,13,15,07,26.20
2007,07,13,15,08,26.20
2007,07,13,15,09,26.20
2007,07,13,15,10,26.20
2007,07,13,15,11,26.10
2007,07,13,15,12,26.10
2007,07,13,15,13,26.00
2007,07,13,15,14,25.90
2007,07,13,15,15,25.80
2007,07,13,15,16,25.60
2007,07,13,15,17,25.60
2007,07,13,15,18,25.50
2007,07,13,15,19,25.50
2007,07,13,15,20,25.50
2007,07,13,15,21,25.60
2007,07,13,15,22,25.70
2007,07,13,15,23,25.70
2007,07,13,15,24,25.60
2007,07,13,15,25,25.50
2007,07,13,15,26,25.30
2007,07,13,15,27,25.10
2007,07,13,15,28,25.10
2007,07,13,15,29,25.00
2007,07,13,15,30,24.90
2007,07,13,15,31,24.90
2007,07,13,15,32,24.80
2007,07,13,15,33,24.70
2007,07,13,15,34,24.70
2007,07,13,15,35,24.60
2007,07,13,15,36,24.70
2007,07,13,15,37,24.70
2007,07,13,15,38,24.80
2007,07,13,15,39,24.80
2007,07,13,15,40,24.80
2007,07,13,15,41,24.70
2007,07,13,15,42,24.70
2007,07,13,15,43,24.70
2007,07,13,15,44,24.70
2007,07,13,15,45,24.80
2007,07,13,15,46,24.90
2007,07,13,15,47,24.90
2007,07,13,15,48,25.00
2007,07,13,15,49,25.00
2007,07,13,15,50,25.10
2007,07,13,15,51,25.10
2007,07,13,15,52,25.10
2007,07,13,15,53,25.20
2007,07,13,15,54,25.20
2007,07,13,15,55,25.20
2007,07,13,15,56,25.20
2007,07,13,15,57,25.30
2007,07,13,15,58,25.30
2007,07,13,15,59,25.30
2007,07,13,16,00,25.30
2007,07,13,16,01,25.20
2007,07,13,16,02,25.10
2007,07,13,16,03,25.10
2007,07,13,16,04,25.00
2007,07,13,16,05,25.00
2007,07,13,16,06,24.90
2007,07,13,16,07,24.90
2007,07,13,16,08,24.90
2007,07,13,16,09,25.00
2007,07,13,16,10,25.10
2007,07,13,16,11,25.10
2007,07,13,16,12,25.20
2007,07,13,16,13,25.20
2007,07,13,16,14,25.20
2007,07,13,16,15,25.20
2007,07,13,16,16,25.20
2007,07,13,16,17,25.20
2007,07,13,16,18,25.20
2007,07,13,16,19,25.30
2007,07,13,16,20,25.30
2007,07,13,16,21,25.40
2007,07,13,16,22,25.40
2007,07,13,16,23,25.50
2007,07,13,16,24,25.50
2007,07,13,16,25,25.60
2007,07,13,16,26,25.70
2007,07,13,16,27,25.80
2007,07,13,16,28,25.90
2007,07,13,16,29,25.90
2007,07,13,16,30,25.90
2007,07,13,16,31,25.90
2007,07,13,16,32,25.80
2007,07,13,16,33,25.80
2007,07,13,16,34,25.80
2007,07,13,16,35,25.80
2007,07,13,16,36,25.90
2007,07,13,16,37,25.90
2007,07,13,16,38,26.00
2007,07,13,16,39,26.00
2007,07,13,16,40,25.90
2007,07,13,16,41,25.80
2007,07,13,16,42,25.60
2007,07,13,16,43,25.50
2007,07,13,16,44,25.40
2007,07,13,16,45,25.40
2007,07,13,16,46,25.20
2007,07,13,16,47,25.10
2007,07,13,16,48,25.10
2007,07,13,16,49,25.10
2007,07,13,16,50,25.10
2007,07,13,16,51,25.20
2007,07,13,16,52,25.20
2007,07,13,16,53,25.20
2007,07,13,16,54,25.20
2007,07,13,16,55,25.20
2007,07,13,16,56,25.20
2007,07,13,16,57,25.30
2007,07,13,16,58,25.20
2007,07,13,16,59,25.10
2007,07,13,17,00,25.00
2007,07,13,17,01,24.90
2007,07,13,17,02,24.90
2007,07,13,17,03,24.80
2007,07,13,17,04,24.90
2007,07,13,17,05,24.90
2007,07,13,17,06,24.90
2007,07,13,17,07,25.00
2007,07,13,17,08,25.00
2007,07,13,17,09,25.00
2007,07,13,17,10,25.00
2007,07,13,17,11,24.90
2007,07,13,17,12,24.80
2007,07,13,17,13,24.70
2007,07,13,17,14,24.70
2007,07,13,17,15,24.60
2007,07,13,17,16,24.60
2007,07,13,17,17,24.60
2007,07,13,17,18,24.60
2007,07,13,17,19,24.60